Soldotna, AK

10:26 AM AKST on December 14, 2019 (GMT -0900)
Soldotna

Weather History for PASX - October, 2019

Change the Weather History Date:

Monday, October 21, 2019

  Actual Average Record
Temperature  
Mean Temperature 37 °F -  
Max Temperature 44 °F 38 °F 56 °F (1957)
Min Temperature 30 °F 26 °F 3 °F (1996)
Degree Days  
Heating Degree Days 28    
Moisture  
Dew Point 34 °F    
Average Humidity 95    
Maximum Humidity 100    
Minimum Humidity 71    
Precipitation  
Precipitation 0.00 in - - ()
Sea Level Pressure  
Sea Level Pressure 29.71 in    
Wind  
Wind Speed 1 mph (East)    
Max Wind Speed 4 mph    
Max Gust Speed -    
Visibility 6 miles    
Events Fog , Rain    
Averages and records for this station are not official NWS values.
T = Trace of Precipitation, MM = Missing Value Source: NWS Daily Summary

Daily Weather History Graph

Daily Weather History Graph

Search for Another Location

Airport or City:

Astronomy

Oct. 21, 2019 Rise Set
Actual Time 8:59 AM AKDT 6:36 PM AKDT
Civil Twilight 8:16 AM AKDT 7:20 PM AKDT
Nautical Twilight 7:27 AM AKDT 8:09 PM AKDT
Astronomical Twilight 6:38 AM AKDT 8:57 PM AKDT
Moon No Moon Rise 5:25 PM AKDT (10/21)
Length of Visible Light 11h 03m
Length of Day
9h 36m
Waning Gibbous, 47% of the Moon is Illuminated
Oct 21
Waning Gibbous
Oct 27
New
Nov 4
First Quarter
Nov 12
Full
Nov 19
Last Quarter

Hourly Weather History & Observations

Time (AKDT) Temp. Windchill Dew Point Humidity Pressure Visibility Wind Dir Wind Speed Gust Speed Precip Events Conditions
12:56 AM 36.0 °F - 36.0 °F 100% 29.68 in 10.0 mi Calm Calm - N/A   Mostly Cloudy
1:20 AM 33.8 °F - 32.0 °F 93% 29.65 in 1.8 mi Calm Calm - N/A   Mostly Cloudy
1:24 AM 32.0 °F - 32.0 °F 100% 29.65 in 0.8 mi Calm Calm - N/A   Scattered Clouds
1:37 AM 32.0 °F - 32.0 °F 100% 29.65 in 0.5 mi Calm Calm - N/A Fog Fog
1:56 AM 32.0 °F - 30.9 °F 96% 29.68 in 0.5 mi Calm Calm - N/A Fog Fog
2:02 AM 32.0 °F 28.7 °F 30.2 °F 93% 29.65 in 1.0 mi East 3.5 mph - N/A   Mostly Cloudy
2:07 AM 32.0 °F - 30.2 °F 93% 29.65 in 2.0 mi Calm Calm - N/A   Mostly Cloudy
2:20 AM 32.0 °F - 30.2 °F 93% 29.65 in 5.0 mi Calm Calm - N/A   Mostly Cloudy
2:56 AM 32.0 °F - 32.0 °F 100% 29.68 in 9.0 mi Calm Calm - N/A   Overcast
3:56 AM 33.1 °F - 33.1 °F 100% 29.69 in 10.0 mi Calm Calm - 0.00 in Rain Light Rain
4:07 AM 33.8 °F - 33.8 °F 100% 29.66 in 10.0 mi Calm Calm - 0.00 in Rain Light Rain
4:56 AM 34.0 °F - 34.0 °F 100% 29.70 in 10.0 mi Calm Calm - 0.00 in Rain Light Rain
5:56 AM 35.1 °F - 35.1 °F 100% 29.70 in 10.0 mi Calm Calm - 0.00 in   Overcast
6:19 AM 35.6 °F - 35.6 °F 100% 29.68 in 10.0 mi Calm Calm - N/A   Overcast
6:50 AM 35.6 °F - 33.8 °F 93% 29.68 in 10.0 mi Calm Calm - N/A   Overcast
6:56 AM 35.1 °F - 34.0 °F 96% 29.71 in 10.0 mi Calm Calm - N/A   Overcast
7:46 AM 35.6 °F 32.8 °F 33.8 °F 93% 29.68 in 2.0 mi ESE 3.5 mph - N/A   Overcast
7:56 AM 35.1 °F - 34.0 °F 96% 29.71 in 1.5 mi Calm Calm - N/A   Overcast
8:05 AM 35.6 °F - 33.8 °F 93% 29.68 in 0.8 mi Calm Calm - N/A   Overcast
8:21 AM 35.6 °F - 33.8 °F 93% 29.68 in 0.5 mi Calm Calm - N/A Fog Fog
8:38 AM 35.6 °F - 35.6 °F 100% 29.69 in 0.2 mi Calm Calm - N/A Fog Fog
8:56 AM 35.1 °F - 35.1 °F 100% 29.72 in 0.2 mi Calm Calm - N/A Fog Fog
9:42 AM 35.6 °F - 35.6 °F 100% 29.70 in 0.8 mi Calm Calm - N/A   Overcast
9:56 AM 35.1 °F - 35.1 °F 100% 29.73 in 0.5 mi Calm Calm - N/A Fog Fog
10:10 AM 35.6 °F 32.8 °F 35.6 °F 100% 29.70 in 1.0 mi East 3.5 mph - N/A   Overcast
10:16 AM 35.6 °F 32.8 °F 35.6 °F 100% 29.70 in 2.0 mi ENE 3.5 mph - N/A   Overcast
10:20 AM 35.6 °F 32.8 °F 35.6 °F 100% 29.70 in 5.0 mi ENE 3.5 mph - N/A   Overcast
11:56 AM 39.9 °F - 39.0 °F 97% 29.75 in 10.0 mi Calm Calm - N/A   Overcast
12:13 PM 39.2 °F 37.0 °F 39.2 °F 100% 29.72 in 10.0 mi ENE 3.5 mph - N/A   Overcast
12:53 PM 42.8 °F - 39.2 °F 87% 29.72 in 10.0 mi Calm Calm - N/A   Overcast
1:56 PM 43.0 °F - 39.0 °F 86% 29.75 in 10.0 mi Calm Calm - N/A   Overcast
3:11 PM 44.6 °F 43.1 °F 37.4 °F 76% 29.72 in 10.0 mi SSW 3.5 mph - N/A   Overcast
3:56 PM 44.1 °F 42.5 °F 35.1 °F 71% 29.76 in 10.0 mi SW 3.5 mph - N/A   Overcast
4:56 PM 44.1 °F - 36.0 °F 73% 29.75 in 10.0 mi Calm Calm - N/A   Overcast
5:56 PM 43.0 °F - 37.9 °F 82% 29.75 in 10.0 mi Calm Calm - N/A   Overcast
6:56 PM 41.0 °F - 39.0 °F 93% 29.76 in 10.0 mi Calm Calm - N/A   Overcast
8:56 PM 39.0 °F 36.8 °F 37.9 °F 96% 29.77 in 10.0 mi East 3.5 mph - N/A   Overcast
9:56 PM 37.0 °F - 37.0 °F 100% 29.77 in 10.0 mi Calm Calm - N/A   Scattered Clouds
10:56 PM 30.9 °F - 30.0 °F 96% 29.79 in 5.0 mi Calm Calm - N/A   Clear
11:24 PM 30.2 °F - 30.2 °F 100% 29.76 in 1.8 mi Calm Calm - N/A   Clear
11:28 PM 30.2 °F - 28.4 °F 93% 29.76 in 0.8 mi Calm Calm - N/A   Clear
11:39 PM 30.2 °F - 30.2 °F 100% 29.76 in 1.2 mi Calm Calm - N/A   Clear
11:44 PM 30.2 °F 26.7 °F 28.4 °F 93% 29.76 in 3.0 mi NE 3.5 mph - N/A   Clear
11:56 PM 30.0 °F 26.5 °F 28.9 °F 96% 29.80 in 5.0 mi East 3.5 mph - N/A   Clear